Location: Glens Falls
(43.3090°N, 73.6440°W)
Time: 06:46:43
(UTC-04:00)

Cosmos 1110 Rocket - Pass Details

Date: 24 February 2018
Orbit: 753 x 781 km, 74.0° (Epoch: 24 June)

Event Time Altitude Azimuth Distance (km) Brightness Sun altitude
Rises 18:55:58 0° 341° (NNW) 3,254 7.5 -15.0°
Reaches altitude 10° 18:58:22 10° 344° (NNW) 2,327 6.7 -15.5°
Maximum altitude 19:03:38 69° 68° (ENE) 832 3.9 -16.4°
Drops below altitude 10° 19:08:54 10° 152° (SSE) 2,325 6.2 -17.4°
Enters shadow 19:09:21 - 152° (SSE) 2,498 6.4 -17.5°
